Regional Weather Roundup
Issued by NWS

Home | Current Version | Previous Version | Text Only | Print | Product List | Glossary Off
Versions: 1 2 3 4 5 6 7 8 9 10 11 12 13 14 15 16 17 18 19 20 21 22 23 24 25 26 27 28 29 30 31 32 33 34 35 36 37 38 39 40 41 42 43 44 45 46 47 48 49 50

004
ASUS43 KOAX 100010
RWRNE

WEATHER ROUNDUP FOR NEBRASKA
NATIONAL WEATHER SERVICE OMAHA NE
600 PM CST TUE FEB 09 2016

NOTES: SATELLITE DATA IS BEING USED TO AUGMENT CLOUD COVER ABOVE
       12000 FEET.
       "FAIR" INDICATES FEW OR NO CLOUDS BELOW 12,000 FEET WITH NO
       SIGNIFICANT WEATHER AND/OR OBSTRUCTIONS TO VISIBILITY.

  * THESE STATIONS DO NOT REPORT WEATHER SUCH AS RAIN...SNOW OR FOG.

NEZ001>004-019>022-054>056-100100-
NEBRASKA PANHANDLE

CITY           SKY/WX    TMP DP  RH WIND       PRES   REMARKS
SCOTTSBLUFF    CLEAR     47  31  53 NW13      30.19F
6HR MIN TEMP:  46; 6HR MAX TEMP:  52;

ALLIANCE       CLEAR     39  31  72 W14       30.15S WCI  31
6HR MIN TEMP:  36; 6HR MAX TEMP:  40;

CHADRON        PTCLDY    48  33  56 W12       30.14S
6HR MIN TEMP:  44; 6HR MAX TEMP:  53;

KIMBALL        CLEAR     40  31  69 W13       30.23S WCI  33
SIDNEY         CLEAR     40  31  70 W10       30.20F WCI  33
6HR MIN TEMP:  40; 6HR MAX TEMP:  44;

$$

NEZ057>060-069>072-079>082-100100-
SOUTHWEST NEBRASKA

CITY           SKY/WX    TMP DP  RH WIND       PRES   REMARKS
NORTH PLATTE   PTCLDY    35  23  61 SW3       30.17F
6HR MIN TEMP:  32; 6HR MAX TEMP:  36;

IMPERIAL       CLOUDY    42  30  62 W10       30.18F
6HR MIN TEMP:  36; 6HR MAX TEMP:  44;

LEXINGTON      CLOUDY    32  22  67 S6        30.20F WCI  26
MCCOOK         CLOUDY    36  23  59 S6        30.21F WCI  31
6HR MIN TEMP:  34; 6HR MAX TEMP:  39;

OGALLALA       CLOUDY    40  32  71 SW6       30.17S
$$

NEZ005>010-023>029-035>040-094-100100-
NORTH CENTRAL NEBRASKA

CITY           SKY/WX    TMP DP  RH WIND       PRES   REMARKS
VALENTINE      CLOUDY    39  27  62 NW8       30.14S WCI  33
6HR MIN TEMP:  25; 6HR MAX TEMP:  40;

AINSWORTH      CLOUDY    35  22  58 CALM      30.14F
BROKEN BOW     CLOUDY    29  21  72 S7        30.18F WCI  22
6HR MIN TEMP:  26; 6HR MAX TEMP:  32;

O`NEILL        CLOUDY    31  17  55 CALM      30.19S
ORD            CLOUDY    27  16  63 SW6       30.20F WCI  20
6HR MIN TEMP:  25; 6HR MAX TEMP:  29;

THEDFORD       CLOUDY    42  29  61 W3        30.15S
$$

NEZ041-046>049-061>064-073>077-083>087-100100-
SOUTH CENTRAL NEBRASKA

CITY           SKY/WX    TMP DP  RH WIND       PRES   REMARKS
GRAND ISLAND   CLOUDY    25  14  63 SW8       30.25F WCI  16
6HR MIN TEMP:  24; 6HR MAX TEMP:  28;

AURORA         CLOUDY    25  15  65 W8        30.25F WCI  16
HASTINGS       CLOUDY    26  15  63 W6        30.24F WCI  19
6HR MIN TEMP:  26; 6HR MAX TEMP:  28;

HEBRON         PTCLDY    26  14  59 NW3       30.28F
HOLDREGE       CLOUDY    29  19  66 S5        30.22F WCI  23
YORK           PTCLDY    23  16  74 W7        30.26S WCI  15
$$

NEZ011>018-030>034-042>045-100100-
NORTHEAST NEBRASKA

CITY           SKY/WX    TMP DP  RH WIND       PRES   REMARKS
NORFOLK        CLOUDY    26  14  60 W8        30.22S WCI  18
6HR MIN TEMP:  23; 6HR MAX TEMP:  29;

ALBION         CLOUDY    26  13  57 CALM      30.24R
BLAIR          CLEAR     21  13  73 NW6       30.24S WCI  13
COLUMBUS *     CLOUDY    27   9  46 W8        30.26R WCI  18
FREMONT        CLEAR     21  12  69 CALM      30.26S
TEKAMAH        MOCLDY    38  12  34 NW9       30.26S WCI  31
6HR MIN TEMP:  21; 6HR MAX TEMP:  44;

WAYNE          CLOUDY    23  15  72 NW3       30.24F
$$

NEZ050>053-065>068-078-088>093-100100-
SOUTHEAST NEBRASKA

CITY           SKY/WX    TMP DP  RH WIND       PRES   REMARKS
LINCOLN        CLOUDY    28  14  55 NW7       30.28S WCI  21
6HR MIN TEMP:  22; 6HR MAX TEMP:  28;

OMAHA EPPLEY   PTCLDY    21  11  65 N8        30.27R WCI  11
6HR MIN TEMP:  18; 6HR MAX TEMP:  24;

BEATRICE       CLOUDY    26  13  57 NW9       30.28R WCI  17
FALLS CITY     CLEAR     24   9  52 NW15      30.27R WCI  11
6HR MIN TEMP:  24; 6HR MAX TEMP:  27;

NEBRASKA CITY  CLEAR     22  10  58 N7        30.27R WCI  13
PLATTSMOUTH    CLEAR     21  11  66 NW8       30.26R WCI  11
$$

NEZ044-045-051>053-067-100100-
OMAHA AREA

CITY           SKY/WX    TMP DP  RH WIND       PRES   REMARKS
OMAHA EPPLEY   PTCLDY    21  11  65 N8        30.27R WCI  11
6HR MIN TEMP:  18; 6HR MAX TEMP:  24;

BLAIR          CLEAR     21  13  73 NW6       30.24S WCI  13
FREMONT        CLEAR     21  12  69 CALM      30.26S
MILLARD        CLEAR     23  12  62 NW6       30.27S WCI  16
OFFUTT AFB     CLEAR     22  12  65 NW9       30.26S WCI  12
PLATTSMOUTH    CLEAR     21  11  66 NW8       30.26R WCI  11
WAHOO          FAIR      22  13  70 NW3       30.26S
$$




USA.gov is the U.S. government's official web portal to all federal, state and local government web resources and services.